EW2173 Weather Reports


time (UTC)temp
F
wind
direction
speed
knots
gust
knots
rain 1hr
in
rain 24hr
in
rain mn
in
humidity
%
barometer
mb
20260906100033 74 86 1.7 3.5 0.00 0.00 0.00 1 1013.0
20260906094551 74 39 0.0 3.5 0.00 0.00 0.00 1 1012.9
20260906093038 74 20 0.0 3.5 0.00 0.00 0.00 1 1013.1
20260906091515 74 256 1.7 2.6 0.00 0.00 0.00 1 1013.1
20260906090018 74 34 0.0 3.5 0.00 0.00 0.00 1 1013.1
20260906084506 74 27 1.7 5.2 0.00 0.00 0.00 1 1012.8
20260906083001 75 264 3.5 7.0 0.00 0.00 0.00 1 1012.8
20260906081557 75 34 0.9 5.2 0.00 0.00 0.00 1 1012.7
20260906080056 76 75 1.7 6.1 0.00 0.00 0.00 1 1012.8
20260906074556 76 63 0.9 6.1 0.00 0.00 0.00 1 1012.8
20260906073047 76 76 0.9 2.6 0.00 0.00 0.00 1 1012.5
20260906071543 76 129 0.0 3.5 0.00 0.00 0.00 1 1012.3
20260906070039 76 129 1.7 4.3 0.00 0.00 0.00 1 1012.3
20260906064534 76 127 2.6 4.3 0.00 0.00 0.00 1 1012.6
20260906063033 76 120 3.5 5.2 0.00 0.00 0.00 1 1012.8
20260906061528 76 91 1.7 3.5 0.00 0.00 0.00 1 1013.0
20260906060020 77 51 0.0 4.3 0.00 0.00 0.00 1 1013.0
20260906054518 77 37 0.9 6.1 0.00 0.00 0.00 1 1013.1
20260906053010 77 77 3.5 6.1 0.00 0.00 0.00 1 1013.1
20260906051506 78 90 1.7 2.6 0.00 0.00 0.00 5 1013.2
20260906050001 78 86 0.9 4.3 0.00 0.00 0.00 8 1013.2
20260906044602 78 78 0.9 4.3 0.00 0.00 0.00 7 1013.3
20260906043052 78 46 0.0 2.6 0.00 0.00 0.00 1 1013.3
20260906041548 78 51 0.0 1.7 0.00 0.00 0.00 5 1013.5
20260906040045 78 101 0.0 3.5 0.00 0.00 0.00 1 1013.4
20260906034539 78 99 1.7 3.5 0.00 0.00 0.00 13 1013.4
20260906033045 78 101 0.0 2.6 0.00 0.00 0.00 9 1013.3
20260906031537 79 101 1.7 3.5 0.00 0.00 0.00 19 1013.3
20260906030025 79 80 0.0 3.5 0.00 0.00 0.00 21 1013.3
20260906024539 79 58 1.7 4.3 0.00 0.00 0.00 22 1013.4
20260906023022 79 30 0.9 6.1 0.00 0.00 0.00 39 1013.1
20260906021512 79 252 4.3 7.0 0.00 0.00 0.00 43 1012.7
20260906020007 80 329 2.6 4.3 0.00 0.00 0.00 42 1012.7
20260906014508 80 288 1.7 4.3 0.00 0.00 0.00 47 1012.6
20260906013102 80 57 2.6 5.2 0.00 0.00 0.00 48 1012.4
20260906011603 81 39 3.5 5.2 0.00 0.00 0.00 56 1012.2
20260906010052 82 33 0.9 3.5 0.00 0.00 0.00 62 1012.2
20260906004546 82 245 1.7 6.1 0.00 0.00 0.00 66 1012.3
20260906003040 82 13 0.0 6.1 0.00 0.00 0.00 67 1012.2
20260906001534 83 53 1.7 7.8 0.00 0.00 0.00 66 1011.9
20260906000030 83 128 4.3 9.6 0.00 0.00 0.00 65 1011.9
20260905234526 85 97 0.0 0.0 0.00 0.00 0.00 66 1011.8
20260905233025 86 123 0.0 0.0 0.00 0.00 0.00 64 1011.9
20260905231517 87 107 0.0 0.0 0.00 0.00 0.00 65 1011.8
20260905230012 89 101 0.0 0.0 0.00 0.00 0.00 66 1011.7
20260905224508 89 95 0.0 0.0 0.00 0.00 0.00 64 1011.6
20260905223002 88 41 0.0 0.0 0.00 0.00 0.00 65 1011.7
20260905221612 89 20 0.0 0.0 0.00 0.00 0.00 65 1011.5
20260905220054 89 7 0.0 4.3 0.00 0.00 0.00 65 1011.5
20260905214549 93 20 4.3 7.8 0.00 0.00 0.00 60 1011.7
20260905213057 95 73 0.0 4.3 0.00 0.00 0.00 55 1011.8
20260905211545 93 103 0.0 4.3 0.00 0.00 0.00 58 1011.8
20260905210048 94 89 1.7 6.1 0.00 0.00 0.00 57 1011.9
20260905204538 93 136 0.0 5.2 0.00 0.00 0.00 61 1011.9
20260905203027 90 104 5.2 7.8 0.00 0.00 0.00 63 1012.2
20260905201522 90 68 0.0 0.0 0.00 0.00 0.00 64 1012.4
20260905200020 90 96 0.0 0.0 0.00 0.00 0.00 62 1012.6
20260905194513 92 69 0.0 0.0 0.00 0.00 0.00 59 1012.7
20260905193008 93 93 0.0 0.0 0.00 0.00 0.00 59 1012.8
20260905191504 91 77 0.0 0.0 0.00 0.00 0.00 60 1013.3
20260905184556 89 265 0.0 0.9 0.00 0.00 0.00 66 1013.7
20260905183048 86 159 0.9 4.3 0.00 0.00 0.00 50 1013.7
20260905181603 84 123 0.0 5.2 0.00 0.00 0.00 35 1014.1
20260905180041 83 123 0.0 5.2 0.00 0.00 0.00 20 1014.3
20260905174535 82 113 0.9 3.5 0.00 0.00 0.00 25 1014.5
20260905173031 82 108 1.7 5.2 0.00 0.00 0.00 30 1014.8
20260905171526 83 128 0.0 8.7 0.00 0.00 0.00 51 1014.6
20260905170022 85 112 2.6 7.8 0.00 0.00 0.00 65 1014.6
20260905164517 88 154 1.7 9.6 0.00 0.00 0.00 64 1014.9
20260905163011 91 137 0.0 0.0 0.00 0.00 0.00 59 1015.0
20260905161509 93 116 0.0 0.0 0.00 0.00 0.00 57 1014.8
20260905160003 90 58 0.0 0.0 0.00 0.00 0.00 63 1014.6
20260905154617 88 32 0.0 0.0 0.00 0.00 0.00 65 1014.8
20260905153054 87 89 0.0 0.0 0.00 0.00 0.00 65 1014.9
20260905151559 85 341 0.0 0.0 0.00 0.00 0.00 59 1015.0
20260905150045 83 93 0.0 0.0 0.00 0.00 0.00 56 1015.1
20260905144540 82 81 0.0 0.0 0.00 0.00 0.00 38 1015.3
20260905143039 81 84 0.0 0.0 0.00 0.00 0.00 38 1015.4
20260905141535 81 79 0.0 0.0 0.00 0.00 0.00 27 1015.4
20260905140025 80 53 0.0 0.0 0.00 0.00 0.00 27 1015.3
20260905134521 80 71 0.0 0.0 0.00 0.00 0.00 28 1015.5
20260905133017 79 41 0.0 0.0 0.00 0.00 0.00 7 1015.6
20260905131514 78 13 0.0 0.0 0.00 0.00 0.00 1 1015.7
20260905130007 78 12 0.0 0.0 0.00 0.00 0.00 1 1015.8
20260905124505 77 120 0.0 0.0 0.00 0.00 0.00 1 1015.9
20260905123100 77 122 0.0 0.0 0.00 0.00 0.00 1 1015.8
20260905121555 77 122 0.0 0.0 0.00 0.00 0.00 1 1015.6
20260905120051 0 0.0 0.0 0.00 0.00 0.00 1015.1
20260905114546 0 0.0 0.0 0.00 0.00 0.00 1015.0
20260905113042 0 0.0 0.0 0.00 0.00 0.00 1014.8
20260905111543 0 0.0 0.0 0.00 0.00 0.00 1014.9
20260905110032 0 0.0 0.0 0.00 0.00 0.00 1014.6
20260905104528 0 0.0 0.0 0.00 0.00 0.00 1014.4
20260905103024 0 0.0 0.0 0.00 0.00 0.00 1014.4
20260905101523 0 0.0 0.0 0.00 0.00 0.00 1014.3